GW2231 Weather Reports


time (UTC)temp
F
wind
direction
speed
knots
gust
knots
rain 1hr
in
rain 24hr
in
rain mn
in
humidity
%
barometer
mb
20260505021502 69 188 0.9 1.7 0.00 0.39 0.39 65 1001.6
20260505013503 71 198 0.9 2.6 0.00 0.39 0.39 62 1001.3
20260505012005 72 195 0.0 1.7 0.00 0.39 0.39 61 1001.2
20260505011004 72 192 0.0 1.7 0.00 0.39 0.39 60 1000.9
20260505010504 73 101 0.0 2.6 0.00 0.39 0.39 59 1000.9
20260505010005 73 93 0.0 2.6 0.00 0.39 0.39 58 1000.8
20260505004005 74 100 0.0 6.1 0.00 0.39 0.39 57 1000.7
20260505002505 75 90 0.9 2.6 0.00 0.39 0.39 56 1000.6
20260505000504 76 62 0.9 4.3 0.00 0.39 0.39 55 1000.4
20260505000003 76 154 1.7 4.3 0.00 0.39 0.39 55 1000.4
20260504235502 77 284 0.9 8.7 0.00 0.39 0.39 55 1000.5
20260504235004 77 280 1.7 8.7 0.00 0.39 0.39 54 1000.5
20260504234504 77 266 0.9 3.5 0.00 0.39 0.39 55 1000.5
20260504232505 78 187 1.7 5.2 0.00 0.39 0.39 52 1000.4
20260504230004 78 177 0.9 2.6 0.00 0.39 0.39 54 1000.9
20260504224504 78 109 0.9 6.1 0.00 0.39 0.39 57 1001.0
20260504224004 78 186 0.0 4.3 0.00 0.39 0.39 55 1001.1
20260504223005 78 195 0.9 5.2 0.00 0.39 0.39 55 1001.1
20260504220006 76 168 1.7 5.2 0.00 0.39 0.39 64 1001.3
20260504215504 76 176 0.9 5.2 0.00 0.39 0.39 67 1001.3
20260504215004 75 169 0.9 5.2 0.00 0.39 0.39 71 1001.4
20260504213504 71 140 0.9 3.5 0.00 0.39 0.39 78 1001.6
20260504205503 64 130 0.9 3.5 0.01 0.39 0.39 95 1002.0
20260504203004 61 123 0.0 0.0 0.39 0.39 0.39 91 1002.9
20260504202501 61 194 0.0 3.5 0.39 0.39 0.39 90 1002.8
20260504201504 61 88 0.9 7.0 0.39 0.39 0.39 89 1002.8
20260504201002 61 196 1.7 5.2 0.39 0.39 0.39 90 1002.7
20260504200504 61 274 0.9 7.0 0.39 0.39 0.39 90 1003.1
20260504200006 61 51 0.0 7.8 0.39 0.39 0.39 89 1003.2
20260504194504 63 123 1.7 6.1 0.23 0.23 0.23 86 1002.0
20260504194006 64 101 0.9 3.5 0.09 0.09 0.09 83 1004.0
20260504193004 65 12 0.9 2.6 0.00 0.00 0.00 76 1004.4
20260504192004 66 15 0.9 1.7 0.00 0.00 0.00 73 1004.0
20260504191504 66 33 0.0 2.6 0.00 0.00 0.00 71 1004.0
20260504191000 67 29 0.9 2.6 0.00 0.00 0.00 71 1004.1
20260504190504 66 360 1.7 3.5 0.00 0.00 0.00 70 1004.1
20260504190004 66 5 1.7 3.5 0.00 0.00 0.00 72 1004.0
20260504185504 66 5 1.7 2.6 0.00 0.00 0.00 73 1004.1
20260504184500 67 13 0.0 0.0 0.00 0.00 0.00 73 1003.8
20260504184002 67 72 0.0 0.0 0.00 0.00 0.00 72 1003.8
20260504182002 68 72 0.0 0.0 0.00 0.00 0.00 69 1004.0
20260504181504 68 72 0.0 0.0 0.00 0.00 0.00 69 1003.9
20260504175504 68 162 0.0 1.7 0.00 0.00 0.00 68 1003.9
20260504172504 67 122 0.9 3.5 0.00 0.00 0.00 68 1004.0
20260504170504 67 184 0.0 2.6 0.00 0.00 0.00 70 1004.7
20260504080959 60 82 0.0 0.0 0.00 0.00 0.00 74 1006.6
20260504045959 61 181 0.0 1.7 0.00 0.00 0.00 66 1006.2
20260504045500 61 167 0.0 1.7 0.00 0.00 0.00 66 1006.2
20260504045000 61 175 0.0 1.7 0.00 0.00 0.00 66 1006.4
20260504044503 61 168 0.0 1.7 0.00 0.00 0.00 65 1006.6
20260504042459 62 210 0.0 3.5 0.00 0.00 0.00 66 1007.1
20260504041959 62 238 0.0 4.3 0.00 0.00 0.00 65 1007.3
20260504041500 62 197 0.9 2.6 0.00 0.00 0.00 64 1007.5
20260504041000 62 194 0.9 2.6 0.00 0.00 0.00 65 1007.5
20260504033958 61 180 0.0 1.7 0.00 0.00 0.00 64 1007.6
20260504031001 63 232 0.0 0.9 0.00 0.00 0.00 61 1007.6
20260504030002 63 196 0.0 4.3 0.00 0.00 0.00 61 1007.7
20260504025502 63 217 0.0 4.3 0.00 0.00 0.00 60 1007.7
20260504024000 64 149 0.9 4.3 0.00 0.00 0.00 59 1007.7
20260504023500 64 327 0.9 4.3 0.00 0.00 0.00 59 1007.7